STARLINK-33575 (62760 NORAD) Tracking and Keplerian Element Data

This shows tracking and keplerian element data for the satellite.

Feedback or suggestion? Click here.




ElementValue
Catalog62760
NameSTARLINK-33575
Epoch Orbit332
Epoch Day35.19947503
Epoch Year2025
RAAN18.9058
Inclination53.1599
Eccentricity0.0001841
Argument of Perigee87.8372
Mean Anonmoly272.2864
Mean Motion15.85735408
Decay Rate0.00156075
L11 62760U 25015C 25035.19947503 .00156075 00000+0 62027-3 0 9990
L22 62760 53.1599 18.9058 0001841 87.8372 272.2864 15.85735408 3320



Live tracking and technical data element details for STARLINK-33575 (NORAD 62760). STARLINK-33575 can be tracked NOW for your location showing map with azimuth and elevation plus other details from your city location.







IsCatalogInMostPopularTable: catalog: 62760, numindb: 3
Update: records affected: 1



GetName: 62760 STARLINK-33575

Hit Count: updated at: Sun, 09 Feb 2025 14:40:18 GMT